Flag for Germany Weather past 2 weeks in Seelze, Lower Saxony, Germany

37 °F


Feels Like: 31 °F
Forecast: 38 / 45 °F
Wind: 8 mph from South

Location: Hannover

Current Time: Nov 27, 2015 at 9:44:26 AM

Latest Report: Nov 27, 2015 at 9:20 AM

Visibility: 3 mi

Pressure: 30.07 "Hg

Humidity: 93%

Dew point: 36 °F

Location of SeelzeLocation

Historic Weather in Seelze — Graph


Seelze temperature yesterday

Maximum temperature yesterday: 45 °F (at 1:20 PM)
Minimum temperature yesterday: 36 °F (at 6:20 AM)
Average temperature yesterday: 40 °F

Past Weeks' High & Low Weather Summary

High59 °F (Nov 13, 12:50 PM)100% (Nov 14, 9:20 PM)30.27 "Hg (Nov 14, 9:20 PM)
Low32 °F (Nov 21, 11:50 PM)54% (Nov 13, 4:50 PM)29.33 "Hg (Nov 21, 5:20 AM)
Average46 °F88%29.83 "Hg
* Reported Nov 12 7:20 AM — Nov 27 7:50 AM, Seelze, Weather by CustomWeather, © 2015

Note: Actual official high and low records may vary slightly from our data, if they occured in-between our weather recording intervals... More about our weather records


Seelze weather history for previous 24 hours

Time TempWeatherWind HumidityBarometerVisibility
7:50 AM
Fri, Nov 27
36 °FFog.7 mph100%30.07 "Hg2 mi
7:20 AM36 °FFog.6 mph100%30.09 "Hg3 mi
6:50 AM36 °FFog.6 mph100%30.09 "Hg3 mi
6:20 AM36 °FFog.6 mph100%30.09 "Hg3 mi
5:50 AM36 °FFog.5 mph100%30.09 "Hg3 mi
4:50 AM34 °FFog.6 mph100%30.09 "Hg4 mi
4:20 AM36 °FFog.6 mph100%30.09 "Hg4 mi
3:50 AM34 °FFog.6 mph100%30.12 "Hg4 mi
3:20 AM34 °FChilly.3 mph100%30.12 "Hg3 mi
2:50 AM34 °FFog.2 mph100%30.12 "Hg3 mi
2:20 AM34 °FChilly.3 mph100%30.12 "Hg3 mi
1:50 AM34 °FChilly.2 mph100%30.12 "Hg2 mi
1:20 AM32 °FChilly.2 mph100%30.12 "Hg2 mi
12:50 AM36 °FFog.2 mph100%30.12 "Hg5 mi
12:20 AM34 °FPassing clouds.2 mph100%30.15 "Hg4 mi
11:50 PM
Thu, Nov 26
36 °FPassing clouds.2 mph100%30.12 "HgN/A
10:50 PM36 °FPassing clouds.2 mph100%30.12 "HgN/A
10:20 PM36 °FPassing clouds.3 mph100%30.12 "HgN/A
9:50 PM39 °FPassing clouds.5 mph93%30.12 "HgN/A
9:20 PM39 °FPassing clouds.6 mph93%30.12 "HgN/A
8:50 PM39 °FPassing clouds.6 mph100%30.12 "HgN/A
8:20 PM39 °FPassing clouds.5 mph93%30.12 "HgN/A
7:50 PM41 °FPassing clouds.5 mph93%30.12 "HgN/A
7:20 PM41 °FPassing clouds.5 mph93%30.09 "HgN/A
6:50 PM43 °FPassing clouds.5 mph87%30.09 "HgN/A
6:20 PM39 °FPassing clouds.3 mph93%30.09 "HgN/A
5:50 PM41 °FPassing clouds.5 mph93%30.07 "HgN/A
5:20 PM43 °FPassing clouds.5 mph87%30.07 "HgN/A
4:50 PM43 °FPassing clouds.6 mph87%30.07 "HgN/A
4:20 PM43 °FPassing clouds.5 mph87%30.04 "HgN/A
3:50 PM43 °FScattered clouds.5 mph87%30.04 "HgN/A
3:20 PM43 °FPartly sunny.5 mph93%30.04 "HgN/A
2:50 PM43 °FPartly sunny.5 mph93%30.01 "HgN/A
2:20 PM45 °FPartly sunny.6 mph87%30.01 "HgN/A
1:50 PM43 °FPartly sunny.8 mph93%30.01 "HgN/A
1:20 PM45 °FPartly sunny.8 mph87%30.01 "HgN/A
12:50 PM43 °FScattered clouds.8 mph87%29.98 "HgN/A
12:20 PM43 °FScattered clouds.10 mph93%29.98 "HgN/A
11:50 AM43 °FPassing clouds.9 mph93%29.98 "HgN/A
11:20 AM43 °FPassing clouds.10 mph93%29.98 "HgN/A
10:50 AM41 °FPassing clouds.9 mph93%29.95 "HgN/A
10:20 AM39 °FScattered clouds.8 mph100%29.95 "HgN/A
9:50 AM39 °FScattered clouds.7 mph100%29.92 "HgN/A
9:20 AM37 °FFog.6 mph100%29.92 "Hg3 mi
Weather by CustomWeather, © 2015

See weather overviewHow to use our weather pages